Year,Month,Day,Hour,Minute,Value (Times are PST for temperature in C)
2011,04,03,00,00,5.40
2011,04,03,00,01,5.40
2011,04,03,00,02,5.40
2011,04,03,00,03,5.40
2011,04,03,00,04,5.40
2011,04,03,00,05,5.40
2011,04,03,00,06,5.50
2011,04,03,00,07,5.50
2011,04,03,00,08,5.50
2011,04,03,00,09,5.50
2011,04,03,00,10,5.50
2011,04,03,00,11,5.50
2011,04,03,00,12,5.50
2011,04,03,00,13,5.50
2011,04,03,00,14,5.50
2011,04,03,00,15,5.40
2011,04,03,00,16,5.40
2011,04,03,00,17,5.40
2011,04,03,00,18,5.50
2011,04,03,00,19,5.50
2011,04,03,00,20,5.50
2011,04,03,00,21,5.50
2011,04,03,00,22,5.50
2011,04,03,00,23,5.50
2011,04,03,00,24,5.40
2011,04,03,00,25,5.40
2011,04,03,00,26,5.40
2011,04,03,00,27,5.40
2011,04,03,00,28,5.40
2011,04,03,00,29,5.40
2011,04,03,00,30,5.40
2011,04,03,00,31,5.40
2011,04,03,00,32,5.40
2011,04,03,00,33,5.40
2011,04,03,00,34,5.40
2011,04,03,00,35,5.40
2011,04,03,00,36,5.40
2011,04,03,00,37,5.30
2011,04,03,00,38,5.30
2011,04,03,00,39,5.30
2011,04,03,00,40,5.30
2011,04,03,00,41,5.30
2011,04,03,00,42,5.30
2011,04,03,00,43,5.30
2011,04,03,00,44,5.30
2011,04,03,00,45,5.30
2011,04,03,00,46,5.30
2011,04,03,00,47,5.30
2011,04,03,00,48,5.30
2011,04,03,00,49,5.30
2011,04,03,00,50,5.20
2011,04,03,00,51,5.20
2011,04,03,00,52,5.20
2011,04,03,00,53,5.20
2011,04,03,00,54,5.10
2011,04,03,00,55,5.10
2011,04,03,00,56,5.10
2011,04,03,00,57,5.10
2011,04,03,00,58,5.10
2011,04,03,00,59,5.10
2011,04,03,01,00,5.10
2011,04,03,01,01,5.10
2011,04,03,01,02,5.10
2011,04,03,01,03,5.10
2011,04,03,01,04,5.10
2011,04,03,01,05,5.10
2011,04,03,01,06,5.10
2011,04,03,01,07,5.10
2011,04,03,01,08,5.10
2011,04,03,01,09,5.10
2011,04,03,01,10,5.10
2011,04,03,01,11,5.10
2011,04,03,01,12,5.10
2011,04,03,01,13,5.10
2011,04,03,01,14,5.10
2011,04,03,01,15,5.10
2011,04,03,01,16,5.10
2011,04,03,01,17,5.00
2011,04,03,01,18,4.90
2011,04,03,01,19,4.90
2011,04,03,01,20,4.90
2011,04,03,01,21,4.90
2011,04,03,01,22,4.90
2011,04,03,01,23,4.90
2011,04,03,01,24,4.90
2011,04,03,01,25,4.90
2011,04,03,01,26,4.90
2011,04,03,01,27,4.90
2011,04,03,01,28,4.90
2011,04,03,01,29,4.90
2011,04,03,01,30,4.90
2011,04,03,01,31,4.90
2011,04,03,01,32,4.90
2011,04,03,01,33,4.90
2011,04,03,01,34,4.80
2011,04,03,01,35,4.80
2011,04,03,01,36,4.80
2011,04,03,01,37,4.80
2011,04,03,01,38,4.80
2011,04,03,01,39,4.80
2011,04,03,01,40,4.80
2011,04,03,01,41,4.80
2011,04,03,01,42,4.80
2011,04,03,01,43,4.80
2011,04,03,01,44,4.80
2011,04,03,01,45,4.80
2011,04,03,01,46,4.80
2011,04,03,01,47,4.80
2011,04,03,01,48,4.80
2011,04,03,01,49,4.80
2011,04,03,01,50,4.80
2011,04,03,01,51,4.80
2011,04,03,01,52,4.80
2011,04,03,01,53,4.80
2011,04,03,01,54,4.80
2011,04,03,01,55,4.80
2011,04,03,01,56,4.80
2011,04,03,01,57,4.80
2011,04,03,01,58,4.80
2011,04,03,01,59,4.80
2011,04,03,02,00,4.70
2011,04,03,02,01,4.70
2011,04,03,02,02,4.70
2011,04,03,02,03,4.70
2011,04,03,02,04,4.70
2011,04,03,02,05,4.70
2011,04,03,02,06,4.70
2011,04,03,02,07,4.70
2011,04,03,02,08,4.70
2011,04,03,02,09,4.70
2011,04,03,02,10,4.80
2011,04,03,02,11,4.80
2011,04,03,02,12,4.80
2011,04,03,02,13,4.80
2011,04,03,02,14,4.80
2011,04,03,02,15,4.80
2011,04,03,02,16,4.90
2011,04,03,02,17,4.90
2011,04,03,02,18,4.90
2011,04,03,02,19,4.90
2011,04,03,02,20,4.90
2011,04,03,02,21,4.80
2011,04,03,02,22,4.80
2011,04,03,02,23,4.80
2011,04,03,02,24,4.80
2011,04,03,02,25,4.80
2011,04,03,02,26,4.80
2011,04,03,02,27,4.80
2011,04,03,02,28,4.80
2011,04,03,02,29,4.90
2011,04,03,02,30,4.90
2011,04,03,02,31,4.90
2011,04,03,02,32,4.80
2011,04,03,02,33,4.80
2011,04,03,02,34,4.80
2011,04,03,02,35,4.80
2011,04,03,02,36,4.80
2011,04,03,02,37,4.80
2011,04,03,02,38,4.70
2011,04,03,02,39,4.70
2011,04,03,02,40,4.60
2011,04,03,02,41,4.60
2011,04,03,02,42,4.50
2011,04,03,02,43,4.50
2011,04,03,02,44,4.50
2011,04,03,02,45,4.50
2011,04,03,02,46,4.50
2011,04,03,02,47,4.40
2011,04,03,02,48,4.40
2011,04,03,02,49,4.40
2011,04,03,02,50,4.40
2011,04,03,02,51,4.30
2011,04,03,02,52,4.30
2011,04,03,02,53,4.30
2011,04,03,02,54,4.30
2011,04,03,02,55,4.20
2011,04,03,02,56,4.30
2011,04,03,02,57,4.30
2011,04,03,02,58,4.30
2011,04,03,02,59,4.30
2011,04,03,03,00,4.30
2011,04,03,03,01,4.20
2011,04,03,03,02,4.20
2011,04,03,03,03,4.20
2011,04,03,03,04,4.20
2011,04,03,03,05,4.20
2011,04,03,03,06,4.20
2011,04,03,03,07,4.20
2011,04,03,03,08,4.20
2011,04,03,03,09,4.20
2011,04,03,03,10,4.20
2011,04,03,03,11,4.20
2011,04,03,03,12,4.20
2011,04,03,03,13,4.20
2011,04,03,03,14,4.20
2011,04,03,03,15,4.20
2011,04,03,03,16,4.30
2011,04,03,03,17,4.30
2011,04,03,03,18,4.40
2011,04,03,03,19,4.40
2011,04,03,03,20,4.50
2011,04,03,03,21,4.50
2011,04,03,03,22,4.50
2011,04,03,03,23,4.60
2011,04,03,03,24,4.60
2011,04,03,03,25,4.60
2011,04,03,03,26,4.60
2011,04,03,03,27,4.60
2011,04,03,03,28,4.60
2011,04,03,03,29,4.60
2011,04,03,03,30,4.70
2011,04,03,03,31,4.70
2011,04,03,03,32,4.60
2011,04,03,03,33,4.60
2011,04,03,03,34,4.60
2011,04,03,03,35,4.50
2011,04,03,03,36,4.50
2011,04,03,03,37,4.50
2011,04,03,03,38,4.50
2011,04,03,03,39,4.50
2011,04,03,03,40,4.40
2011,04,03,03,41,4.40
2011,04,03,03,42,4.40
2011,04,03,03,43,4.40
2011,04,03,03,44,4.30
2011,04,03,03,45,4.30
2011,04,03,03,46,4.30
2011,04,03,03,47,4.20
2011,04,03,03,48,4.20
2011,04,03,03,49,4.20
2011,04,03,03,50,4.10
2011,04,03,03,51,4.10
2011,04,03,03,52,4.10
2011,04,03,03,53,4.00
2011,04,03,03,54,4.00
2011,04,03,03,55,4.10
2011,04,03,03,56,4.10
2011,04,03,03,57,4.10
2011,04,03,03,58,4.10
2011,04,03,03,59,4.10
2011,04,03,04,00,4.10
2011,04,03,04,01,4.10
2011,04,03,04,02,4.10
2011,04,03,04,03,4.10
2011,04,03,04,04,4.00
2011,04,03,04,05,4.00
2011,04,03,04,06,3.90
2011,04,03,04,07,3.80
2011,04,03,04,08,3.80
2011,04,03,04,09,3.70
2011,04,03,04,10,3.70
2011,04,03,04,11,3.60
2011,04,03,04,12,3.60
2011,04,03,04,13,3.50
2011,04,03,04,14,3.50
2011,04,03,04,15,3.40
2011,04,03,04,16,3.40
2011,04,03,04,17,3.30
2011,04,03,04,18,3.30
2011,04,03,04,19,3.40
2011,04,03,04,20,3.40
2011,04,03,04,21,3.40
2011,04,03,04,22,3.40
2011,04,03,04,23,3.50
2011,04,03,04,24,3.50
2011,04,03,04,25,3.50
2011,04,03,04,26,3.50
2011,04,03,04,27,3.50
2011,04,03,04,28,3.60
2011,04,03,04,29,3.60
2011,04,03,04,30,3.70
2011,04,03,04,31,3.70
2011,04,03,04,32,3.70
2011,04,03,04,33,3.80
2011,04,03,04,34,3.80
2011,04,03,04,35,3.80
2011,04,03,04,36,3.90
2011,04,03,04,37,4.00
2011,04,03,04,38,4.00
2011,04,03,04,39,4.10
2011,04,03,04,40,4.20
2011,04,03,04,41,4.20
2011,04,03,04,42,4.20
2011,04,03,04,43,4.20
2011,04,03,04,44,4.20
2011,04,03,04,45,4.20
2011,04,03,04,46,4.20
2011,04,03,04,47,4.20
2011,04,03,04,48,4.10
2011,04,03,04,49,4.00
2011,04,03,04,50,3.90
2011,04,03,04,51,3.80
2011,04,03,04,52,3.60
2011,04,03,04,53,3.50
2011,04,03,04,54,3.40
2011,04,03,04,55,3.30
2011,04,03,04,56,3.30
2011,04,03,04,57,3.20
2011,04,03,04,58,3.20
2011,04,03,04,59,3.10
2011,04,03,05,00,3.00
2011,04,03,05,01,2.90
2011,04,03,05,02,2.90
2011,04,03,05,03,2.80
2011,04,03,05,04,2.80
2011,04,03,05,05,2.80
2011,04,03,05,06,2.70
2011,04,03,05,07,2.70
2011,04,03,05,08,2.70
2011,04,03,05,09,2.70
2011,04,03,05,10,2.70
2011,04,03,05,11,2.70
2011,04,03,05,12,2.70
2011,04,03,05,13,2.70
2011,04,03,05,14,2.70
2011,04,03,05,15,2.70
2011,04,03,05,16,2.70
2011,04,03,05,17,2.60
2011,04,03,05,18,2.60
2011,04,03,05,19,2.60
2011,04,03,05,20,2.50
2011,04,03,05,21,2.50
2011,04,03,05,22,2.50
2011,04,03,05,23,2.50
2011,04,03,05,24,2.50
2011,04,03,05,25,2.50
2011,04,03,05,26,2.50
2011,04,03,05,27,2.50
2011,04,03,05,28,2.50
2011,04,03,05,29,2.50
2011,04,03,05,30,2.50
2011,04,03,05,31,2.50
2011,04,03,05,32,2.50
2011,04,03,05,33,2.50
2011,04,03,05,34,2.60
2011,04,03,05,35,2.60
2011,04,03,05,36,2.70
2011,04,03,05,37,2.70
2011,04,03,05,38,2.70
2011,04,03,05,39,2.80
2011,04,03,05,40,2.80
2011,04,03,05,41,2.80
2011,04,03,05,42,2.90
2011,04,03,05,43,2.90
2011,04,03,05,44,3.00
2011,04,03,05,45,3.10
2011,04,03,05,46,3.20
2011,04,03,05,47,3.20
2011,04,03,05,48,3.20
2011,04,03,05,49,3.30
2011,04,03,05,50,3.30
2011,04,03,05,51,3.30
2011,04,03,05,52,3.40
2011,04,03,05,53,3.50
2011,04,03,05,54,3.50
2011,04,03,05,55,3.50
2011,04,03,05,56,3.60
2011,04,03,05,57,3.70
2011,04,03,05,58,3.80
2011,04,03,05,59,3.80
2011,04,03,06,00,3.90
2011,04,03,06,01,4.00
2011,04,03,06,02,4.00
2011,04,03,06,03,4.10
2011,04,03,06,04,4.20
2011,04,03,06,05,4.20
2011,04,03,06,06,4.20
2011,04,03,06,07,4.20
2011,04,03,06,08,4.20
2011,04,03,06,09,4.20
2011,04,03,06,10,4.20
2011,04,03,06,11,4.10
2011,04,03,06,12,4.10
2011,04,03,06,13,4.00
2011,04,03,06,14,4.00
2011,04,03,06,15,3.90
2011,04,03,06,16,3.80
2011,04,03,06,17,3.70
2011,04,03,06,18,3.60
2011,04,03,06,19,3.50
2011,04,03,06,20,3.40
2011,04,03,06,21,3.40
2011,04,03,06,22,3.30
2011,04,03,06,23,3.40
2011,04,03,06,24,3.50
2011,04,03,06,25,3.50
2011,04,03,06,26,3.60
2011,04,03,06,27,3.70
2011,04,03,06,28,3.90
2011,04,03,06,29,4.00
2011,04,03,06,30,4.10
2011,04,03,06,31,4.20
2011,04,03,06,32,4.20
2011,04,03,06,33,4.30
2011,04,03,06,34,4.30
2011,04,03,06,35,4.30
2011,04,03,06,36,4.30
2011,04,03,06,37,4.40
2011,04,03,06,38,4.40
2011,04,03,06,39,4.40
2011,04,03,06,40,4.40
2011,04,03,06,41,4.40
2011,04,03,06,42,4.40
2011,04,03,06,43,4.40
2011,04,03,06,44,4.40
2011,04,03,06,45,4.40
2011,04,03,06,46,4.40
2011,04,03,06,47,4.40
2011,04,03,06,48,4.40
2011,04,03,06,49,4.40
2011,04,03,06,50,4.40
2011,04,03,06,51,4.40
2011,04,03,06,52,4.40
2011,04,03,06,53,4.40
2011,04,03,06,54,4.30
2011,04,03,06,55,4.30
2011,04,03,06,56,4.30
2011,04,03,06,57,4.30
2011,04,03,06,58,4.20
2011,04,03,06,59,4.20
2011,04,03,07,00,4.20
2011,04,03,07,01,4.20
2011,04,03,07,02,4.30
2011,04,03,07,03,4.30
2011,04,03,07,04,4.20
2011,04,03,07,05,4.20
2011,04,03,07,06,4.20
2011,04,03,07,07,4.20
2011,04,03,07,08,4.10
2011,04,03,07,09,4.00
2011,04,03,07,10,3.90
2011,04,03,07,11,3.90
2011,04,03,07,12,3.80
2011,04,03,07,13,3.80
2011,04,03,07,14,3.80
2011,04,03,07,15,3.80
2011,04,03,07,16,3.90
2011,04,03,07,17,3.90
2011,04,03,07,18,3.90
2011,04,03,07,19,3.90
2011,04,03,07,20,4.00
2011,04,03,07,21,4.10
2011,04,03,07,22,4.10
2011,04,03,07,23,4.10
2011,04,03,07,24,4.10
2011,04,03,07,25,4.00
2011,04,03,07,26,4.00
2011,04,03,07,27,4.00
2011,04,03,07,28,4.00
2011,04,03,07,29,4.00
2011,04,03,07,30,4.00
2011,04,03,07,31,4.00
2011,04,03,07,32,4.00
2011,04,03,07,33,4.00
2011,04,03,07,34,4.00
2011,04,03,07,35,4.00
2011,04,03,07,36,4.00
2011,04,03,07,37,3.90
2011,04,03,07,38,3.90
2011,04,03,07,39,3.90
2011,04,03,07,40,3.80
2011,04,03,07,41,3.80
2011,04,03,07,42,3.80
2011,04,03,07,43,3.80
2011,04,03,07,44,3.80
2011,04,03,07,45,3.80
2011,04,03,07,46,3.80
2011,04,03,07,47,3.80
2011,04,03,07,48,3.90
2011,04,03,07,49,4.00
2011,04,03,07,50,4.00
2011,04,03,07,51,4.10
2011,04,03,07,52,4.10
2011,04,03,07,53,4.20
2011,04,03,07,54,4.20
2011,04,03,07,55,4.30
2011,04,03,07,56,4.40
2011,04,03,07,57,4.50
2011,04,03,07,58,4.60
2011,04,03,07,59,4.60
2011,04,03,08,00,4.70
2011,04,03,08,01,4.80
2011,04,03,08,02,4.90
2011,04,03,08,03,4.90
2011,04,03,08,04,5.10
2011,04,03,08,05,5.10
2011,04,03,08,06,5.10
2011,04,03,08,07,5.10
2011,04,03,08,08,5.10
2011,04,03,08,09,5.10
2011,04,03,08,10,5.20
2011,04,03,08,11,5.20
2011,04,03,08,12,5.20
2011,04,03,08,13,5.30
2011,04,03,08,14,5.30
2011,04,03,08,15,5.30
2011,04,03,08,16,5.30
2011,04,03,08,17,5.30
2011,04,03,08,18,5.40
2011,04,03,08,19,5.40
2011,04,03,08,20,5.50
2011,04,03,08,21,5.50
2011,04,03,08,22,5.50
2011,04,03,08,23,5.60
2011,04,03,08,24,5.60
2011,04,03,08,25,5.70
2011,04,03,08,26,5.70
2011,04,03,08,27,5.70
2011,04,03,08,28,5.70
2011,04,03,08,29,5.80
2011,04,03,08,30,5.80
2011,04,03,08,31,5.80
2011,04,03,08,32,5.90
2011,04,03,08,33,5.90
2011,04,03,08,34,5.90
2011,04,03,08,35,5.90
2011,04,03,08,36,5.90
2011,04,03,08,37,6.00
2011,04,03,08,38,6.00
2011,04,03,08,39,6.00
2011,04,03,08,40,6.00
2011,04,03,08,41,6.00
2011,04,03,08,42,6.10
2011,04,03,08,43,6.10
2011,04,03,08,44,6.20
2011,04,03,08,45,6.20
2011,04,03,08,46,6.20
2011,04,03,08,47,6.20
2011,04,03,08,48,6.20
2011,04,03,08,49,6.20
2011,04,03,08,50,6.30
2011,04,03,08,51,6.30
2011,04,03,08,52,6.30
2011,04,03,08,53,6.40
2011,04,03,08,54,6.40
2011,04,03,08,55,6.40
2011,04,03,08,56,6.40
2011,04,03,08,57,6.40
2011,04,03,08,58,6.40
2011,04,03,08,59,6.40
2011,04,03,09,00,6.50
2011,04,03,09,01,6.60
2011,04,03,09,02,6.60
2011,04,03,09,03,6.60
2011,04,03,09,04,6.60
2011,04,03,09,05,6.60
2011,04,03,09,06,6.60
2011,04,03,09,07,6.60
2011,04,03,09,08,6.60
2011,04,03,09,09,6.70
2011,04,03,09,10,6.70
2011,04,03,09,11,6.70
2011,04,03,09,12,6.70
2011,04,03,09,13,6.70
2011,04,03,09,14,6.70
2011,04,03,09,15,6.70
2011,04,03,09,16,6.70
2011,04,03,09,17,6.80
2011,04,03,09,18,6.80
2011,04,03,09,19,6.80
2011,04,03,09,20,6.80
2011,04,03,09,21,6.80
2011,04,03,09,22,6.80
2011,04,03,09,23,6.80
2011,04,03,09,24,6.80
2011,04,03,09,25,6.80
2011,04,03,09,26,6.80
2011,04,03,09,27,6.80
2011,04,03,09,28,6.80
2011,04,03,09,29,6.80
2011,04,03,09,30,6.80
2011,04,03,09,31,6.80
2011,04,03,09,32,6.80
2011,04,03,09,33,6.80
2011,04,03,09,34,6.80
2011,04,03,09,35,6.80
2011,04,03,09,36,6.80
2011,04,03,09,37,6.80
2011,04,03,09,38,6.80
2011,04,03,09,39,6.90
2011,04,03,09,40,6.90
2011,04,03,09,41,6.90
2011,04,03,09,42,6.90
2011,04,03,09,43,6.90
2011,04,03,09,44,7.00
2011,04,03,09,45,7.00
2011,04,03,09,46,7.00
2011,04,03,09,47,7.10
2011,04,03,09,48,7.10
2011,04,03,09,49,7.20
2011,04,03,09,50,7.20
2011,04,03,09,51,7.30
2011,04,03,09,52,7.30
2011,04,03,09,53,7.30
2011,04,03,09,54,7.30
2011,04,03,09,55,7.30
2011,04,03,09,56,7.40
2011,04,03,09,57,7.40
2011,04,03,09,58,7.40
2011,04,03,09,59,7.40
2011,04,03,10,00,7.40
2011,04,03,10,01,7.50
2011,04,03,10,02,7.50
2011,04,03,10,03,7.40
2011,04,03,10,04,7.40
2011,04,03,10,05,7.50
2011,04,03,10,06,7.50
2011,04,03,10,07,7.50
2011,04,03,10,08,7.50
2011,04,03,10,09,7.50
2011,04,03,10,10,7.60
2011,04,03,10,11,7.60
2011,04,03,10,12,7.60
2011,04,03,10,13,7.60
2011,04,03,10,14,7.70
2011,04,03,10,15,7.70
2011,04,03,10,16,7.70
2011,04,03,10,17,7.70
2011,04,03,10,18,7.70
2011,04,03,10,19,7.70
2011,04,03,10,20,7.70
2011,04,03,10,21,7.70
2011,04,03,10,22,7.70
2011,04,03,10,23,7.70
2011,04,03,10,24,7.60
2011,04,03,10,25,7.60
2011,04,03,10,26,7.50
2011,04,03,10,27,7.60
2011,04,03,10,28,7.60
2011,04,03,10,29,7.50
2011,04,03,10,30,7.50
2011,04,03,10,31,7.50
2011,04,03,10,32,7.50
2011,04,03,10,33,7.50
2011,04,03,10,34,7.50
2011,04,03,10,35,7.50
2011,04,03,10,36,7.60
2011,04,03,10,37,7.60
2011,04,03,10,38,7.50
2011,04,03,10,39,7.50
2011,04,03,10,40,7.50
2011,04,03,10,41,7.50
2011,04,03,10,42,7.50
2011,04,03,10,43,7.60
2011,04,03,10,44,7.60
2011,04,03,10,45,7.60
2011,04,03,10,46,7.70
2011,04,03,10,47,7.70
2011,04,03,10,48,7.70
2011,04,03,10,49,7.60
2011,04,03,10,50,7.70
2011,04,03,10,51,7.60
2011,04,03,10,52,7.60
2011,04,03,10,53,7.60
2011,04,03,10,54,7.60
2011,04,03,10,55,7.60
2011,04,03,10,56,7.60
2011,04,03,10,57,7.70
2011,04,03,10,58,7.70
2011,04,03,10,59,7.70
2011,04,03,11,00,7.70
2011,04,03,11,01,7.70
2011,04,03,11,02,7.60
2011,04,03,11,03,7.60
2011,04,03,11,04,7.50
2011,04,03,11,05,7.50
2011,04,03,11,06,7.60
2011,04,03,11,07,7.70
2011,04,03,11,08,7.60
2011,04,03,11,09,7.60
2011,04,03,11,10,7.60
2011,04,03,11,11,7.60
2011,04,03,11,12,7.60
2011,04,03,11,13,7.60
2011,04,03,11,14,7.60
2011,04,03,11,15,7.70
2011,04,03,11,16,7.70
2011,04,03,11,17,7.70
2011,04,03,11,18,7.70
2011,04,03,11,19,7.70
2011,04,03,11,20,7.70
2011,04,03,11,21,7.60
2011,04,03,11,22,7.60
2011,04,03,11,23,7.60
2011,04,03,11,24,7.50
2011,04,03,11,25,7.50
2011,04,03,11,26,7.60
2011,04,03,11,27,7.50
2011,04,03,11,28,7.50
2011,04,03,11,29,7.60
2011,04,03,11,30,7.60
2011,04,03,11,31,7.60
2011,04,03,11,32,7.60
2011,04,03,11,33,7.60
2011,04,03,11,34,7.50
2011,04,03,11,35,7.40
2011,04,03,11,36,7.40
2011,04,03,11,37,7.50
2011,04,03,11,38,7.50
2011,04,03,11,39,7.50
2011,04,03,11,40,7.60
2011,04,03,11,41,7.60
2011,04,03,11,42,7.60
2011,04,03,11,43,7.70
2011,04,03,11,44,7.60
2011,04,03,11,45,7.60
2011,04,03,11,46,7.50
2011,04,03,11,47,7.50
2011,04,03,11,48,7.30
2011,04,03,11,49,7.30
2011,04,03,11,50,7.30
2011,04,03,11,51,7.30
2011,04,03,11,52,7.30
2011,04,03,11,53,7.30
2011,04,03,11,54,7.30
2011,04,03,11,55,7.40
2011,04,03,11,56,7.40
2011,04,03,11,57,7.30
2011,04,03,11,58,7.30
2011,04,03,11,59,7.30
2011,04,03,12,00,7.30
2011,04,03,12,01,7.30
2011,04,03,12,02,7.30
2011,04,03,12,03,7.30
2011,04,03,12,04,7.30
2011,04,03,12,05,7.30
2011,04,03,12,06,7.30
2011,04,03,12,07,7.30
2011,04,03,12,08,7.30
2011,04,03,12,09,7.30
2011,04,03,12,10,7.30
2011,04,03,12,11,7.30
2011,04,03,12,12,7.40
2011,04,03,12,13,7.40
2011,04,03,12,14,7.40
2011,04,03,12,15,7.40
2011,04,03,12,16,7.40
2011,04,03,12,17,7.50
2011,04,03,12,18,7.50
2011,04,03,12,19,7.50
2011,04,03,12,20,7.40
2011,04,03,12,21,7.40
2011,04,03,12,22,7.50
2011,04,03,12,23,7.50
2011,04,03,12,24,7.50
2011,04,03,12,25,7.50
2011,04,03,12,26,7.50
2011,04,03,12,27,7.50
2011,04,03,12,28,7.60
2011,04,03,12,29,7.60
2011,04,03,12,30,7.60
2011,04,03,12,31,7.50
2011,04,03,12,32,7.40
2011,04,03,12,33,7.50
2011,04,03,12,34,7.60
2011,04,03,12,35,7.70
2011,04,03,12,36,7.70
2011,04,03,12,37,7.70
2011,04,03,12,38,7.60
2011,04,03,12,39,7.60
2011,04,03,12,40,7.60
2011,04,03,12,41,7.60
2011,04,03,12,42,7.60
2011,04,03,12,43,7.60
2011,04,03,12,44,7.50
2011,04,03,12,45,7.50
2011,04,03,12,46,7.50
2011,04,03,12,47,7.60
2011,04,03,12,48,7.60
2011,04,03,12,49,7.60
2011,04,03,12,50,7.60
2011,04,03,12,51,7.60
2011,04,03,12,52,7.50
2011,04,03,12,53,7.40
2011,04,03,12,54,7.30
2011,04,03,12,55,7.30
2011,04,03,12,56,7.30
2011,04,03,12,57,7.30
2011,04,03,12,58,7.30
2011,04,03,12,59,7.30
2011,04,03,13,00,7.30
2011,04,03,13,01,7.30
2011,04,03,13,02,7.30
2011,04,03,13,03,7.30
2011,04,03,13,04,7.30
2011,04,03,13,05,7.20
2011,04,03,13,06,7.30
2011,04,03,13,07,7.20
2011,04,03,13,08,7.30
2011,04,03,13,09,7.30
2011,04,03,13,10,7.30
2011,04,03,13,11,7.30
2011,04,03,13,12,7.20
2011,04,03,13,13,7.20
2011,04,03,13,14,7.20
2011,04,03,13,15,7.30
2011,04,03,13,16,7.30
2011,04,03,13,17,7.30
2011,04,03,13,18,7.30
2011,04,03,13,19,7.30
2011,04,03,13,20,7.30
2011,04,03,13,21,7.30
2011,04,03,13,22,7.30
2011,04,03,13,23,7.30
2011,04,03,13,24,7.30
2011,04,03,13,25,7.30
2011,04,03,13,26,7.30
2011,04,03,13,27,7.30
2011,04,03,13,28,7.30
2011,04,03,13,29,7.40
2011,04,03,13,30,7.30
2011,04,03,13,31,7.30
2011,04,03,13,32,7.40
2011,04,03,13,33,7.40
2011,04,03,13,34,7.50
2011,04,03,13,35,7.50
2011,04,03,13,36,7.60
2011,04,03,13,37,7.60
2011,04,03,13,38,7.50
2011,04,03,13,39,7.50
2011,04,03,13,40,7.50
2011,04,03,13,41,7.50
2011,04,03,13,42,7.50
2011,04,03,13,43,7.50
2011,04,03,13,44,7.50
2011,04,03,13,45,7.50
2011,04,03,13,46,7.50
2011,04,03,13,47,7.60
2011,04,03,13,48,7.60
2011,04,03,13,49,7.50
2011,04,03,13,50,7.50
2011,04,03,13,51,7.40
2011,04,03,13,52,7.40
2011,04,03,13,53,7.40
2011,04,03,13,54,7.40
2011,04,03,13,55,7.50
2011,04,03,13,56,7.50
2011,04,03,13,57,7.60
2011,04,03,13,58,7.50
2011,04,03,13,59,7.50
2011,04,03,14,00,7.40
2011,04,03,14,01,7.40
2011,04,03,14,02,7.30
2011,04,03,14,03,7.30
2011,04,03,14,04,7.30
2011,04,03,14,05,7.30
2011,04,03,14,06,7.20
2011,04,03,14,07,7.30
2011,04,03,14,08,7.30
2011,04,03,14,09,7.30
2011,04,03,14,10,7.30
2011,04,03,14,11,7.30
2011,04,03,14,12,7.30
2011,04,03,14,13,7.30
2011,04,03,14,14,7.30
2011,04,03,14,15,7.30
2011,04,03,14,16,7.30
2011,04,03,14,17,7.30
2011,04,03,14,18,7.30
2011,04,03,14,19,7.30
2011,04,03,14,20,7.30
2011,04,03,14,21,7.30
2011,04,03,14,22,7.30
2011,04,03,14,23,7.30
2011,04,03,14,24,7.30
2011,04,03,14,25,7.30
2011,04,03,14,26,7.30
2011,04,03,14,27,7.30
2011,04,03,14,28,7.30
2011,04,03,14,29,7.30
2011,04,03,14,30,7.30
2011,04,03,14,31,7.30
2011,04,03,14,32,7.30
2011,04,03,14,33,7.30
2011,04,03,14,34,7.30
2011,04,03,14,35,7.30
2011,04,03,14,36,7.30
2011,04,03,14,37,7.30
2011,04,03,14,38,7.30
2011,04,03,14,39,7.40
2011,04,03,14,40,7.50
2011,04,03,14,41,7.50
2011,04,03,14,42,7.60
2011,04,03,14,43,7.60
2011,04,03,14,44,7.70
2011,04,03,14,45,7.70
2011,04,03,14,46,7.80
2011,04,03,14,47,7.80
2011,04,03,14,48,7.80
2011,04,03,14,49,7.80
2011,04,03,14,50,7.80
2011,04,03,14,51,7.80
2011,04,03,14,52,7.80
2011,04,03,14,53,7.80
2011,04,03,14,54,7.80
2011,04,03,14,55,7.90
2011,04,03,14,56,7.90
2011,04,03,14,57,7.90
2011,04,03,14,58,7.90
2011,04,03,14,59,7.90
2011,04,03,15,00,7.90
2011,04,03,15,01,8.00
2011,04,03,15,02,8.00
2011,04,03,15,03,8.00
2011,04,03,15,04,8.10
2011,04,03,15,05,8.10
2011,04,03,15,06,8.20
2011,04,03,15,07,8.20
2011,04,03,15,08,8.10
2011,04,03,15,09,8.10
2011,04,03,15,10,8.10
2011,04,03,15,11,8.10
2011,04,03,15,12,8.10
2011,04,03,15,13,8.20
2011,04,03,15,14,8.20
2011,04,03,15,15,8.20
2011,04,03,15,16,8.20
2011,04,03,15,17,8.20
2011,04,03,15,18,8.30
2011,04,03,15,19,8.30
2011,04,03,15,20,8.40
2011,04,03,15,21,8.50
2011,04,03,15,22,8.50
2011,04,03,15,23,8.60
2011,04,03,15,24,8.60
2011,04,03,15,25,8.70
2011,04,03,15,26,8.70
2011,04,03,15,27,8.70
2011,04,03,15,28,8.70
2011,04,03,15,29,8.80
2011,04,03,15,30,8.80
2011,04,03,15,31,8.80
2011,04,03,15,32,8.90
2011,04,03,15,33,8.90
2011,04,03,15,34,8.80
2011,04,03,15,35,8.80
2011,04,03,15,36,8.80
2011,04,03,15,37,8.80
2011,04,03,15,38,8.80
2011,04,03,15,39,8.80
2011,04,03,15,40,8.70
2011,04,03,15,41,8.70
2011,04,03,15,42,8.70
2011,04,03,15,43,8.70
2011,04,03,15,44,8.70
2011,04,03,15,45,8.70
2011,04,03,15,46,8.70
2011,04,03,15,47,8.80
2011,04,03,15,48,8.80
2011,04,03,15,49,8.80
2011,04,03,15,50,8.70
2011,04,03,15,51,8.70
2011,04,03,15,52,8.70
2011,04,03,15,53,8.70
2011,04,03,15,54,8.70
2011,04,03,15,55,8.60
2011,04,03,15,56,8.50
2011,04,03,15,57,8.50
2011,04,03,15,58,8.50
2011,04,03,15,59,8.50
2011,04,03,16,00,8.50
2011,04,03,16,01,8.50
2011,04,03,16,02,8.50
2011,04,03,16,03,8.50
2011,04,03,16,04,8.60
2011,04,03,16,05,8.60
2011,04,03,16,06,8.60
2011,04,03,16,07,8.70
2011,04,03,16,08,8.60
2011,04,03,16,09,8.60
2011,04,03,16,10,8.50
2011,04,03,16,11,8.50
2011,04,03,16,12,8.50
2011,04,03,16,13,8.50
2011,04,03,16,14,8.50
2011,04,03,16,15,8.50
2011,04,03,16,16,8.50
2011,04,03,16,17,8.60
2011,04,03,16,18,8.60
2011,04,03,16,19,8.60
2011,04,03,16,20,8.60
2011,04,03,16,21,8.70
2011,04,03,16,22,8.70
2011,04,03,16,23,8.70
2011,04,03,16,24,8.70
2011,04,03,16,25,8.60
2011,04,03,16,26,8.60
2011,04,03,16,27,8.50
2011,04,03,16,28,8.50
2011,04,03,16,29,8.50
2011,04,03,16,30,8.40
2011,04,03,16,31,8.40
2011,04,03,16,32,8.40
2011,04,03,16,33,8.40
2011,04,03,16,34,8.30
2011,04,03,16,35,8.20
2011,04,03,16,36,8.20
2011,04,03,16,37,8.10
2011,04,03,16,38,8.00
2011,04,03,16,39,8.00
2011,04,03,16,40,8.10
2011,04,03,16,41,8.10
2011,04,03,16,42,8.10
2011,04,03,16,43,8.00
2011,04,03,16,44,8.00
2011,04,03,16,45,8.00
2011,04,03,16,46,8.00
2011,04,03,16,47,8.00
2011,04,03,16,48,8.00
2011,04,03,16,49,8.00
2011,04,03,16,50,8.10
2011,04,03,16,51,8.10
2011,04,03,16,52,8.10
2011,04,03,16,53,8.10
2011,04,03,16,54,8.10
2011,04,03,16,55,8.10
2011,04,03,16,56,8.20
2011,04,03,16,57,8.20
2011,04,03,16,58,8.20
2011,04,03,16,59,8.20
2011,04,03,17,00,8.20
2011,04,03,17,01,8.20
2011,04,03,17,02,8.20
2011,04,03,17,03,8.20
2011,04,03,17,04,8.20
2011,04,03,17,05,8.20
2011,04,03,17,06,8.20
2011,04,03,17,07,8.20
2011,04,03,17,08,8.20
2011,04,03,17,09,8.10
2011,04,03,17,10,8.10
2011,04,03,17,11,8.00
2011,04,03,17,12,8.00
2011,04,03,17,13,8.00
2011,04,03,17,14,8.00
2011,04,03,17,15,8.00
2011,04,03,17,16,7.90
2011,04,03,17,17,7.90
2011,04,03,17,18,7.90
2011,04,03,17,19,7.80
2011,04,03,17,20,7.80
2011,04,03,17,21,7.80
2011,04,03,17,22,7.80
2011,04,03,17,23,7.80
2011,04,03,17,24,7.70
2011,04,03,17,25,7.70
2011,04,03,17,26,7.70
2011,04,03,17,27,7.70
2011,04,03,17,28,7.70
2011,04,03,17,29,7.70
2011,04,03,17,30,7.60
2011,04,03,17,31,7.60
2011,04,03,17,32,7.60
2011,04,03,17,33,7.60
2011,04,03,17,34,7.50
2011,04,03,17,35,7.50
2011,04,03,17,36,7.50
2011,04,03,17,37,7.50
2011,04,03,17,38,7.50
2011,04,03,17,39,7.50
2011,04,03,17,40,7.50
2011,04,03,17,41,7.50
2011,04,03,17,42,7.50
2011,04,03,17,43,7.50
2011,04,03,17,44,7.50
2011,04,03,17,45,7.50
2011,04,03,17,46,7.40
2011,04,03,17,47,7.40
2011,04,03,17,48,7.40
2011,04,03,17,49,7.40
2011,04,03,17,50,7.30
2011,04,03,17,51,7.30
2011,04,03,17,52,7.30
2011,04,03,17,53,7.30
2011,04,03,17,54,7.30
2011,04,03,17,55,7.30
2011,04,03,17,56,7.30
2011,04,03,17,57,7.30
2011,04,03,17,58,7.30
2011,04,03,17,59,7.20
2011,04,03,18,00,7.20
2011,04,03,18,01,7.20
2011,04,03,18,02,7.10
2011,04,03,18,03,7.10
2011,04,03,18,04,7.10
2011,04,03,18,05,7.10
2011,04,03,18,06,7.10